| time (UTC) | temp F | wind direction | speed MPH | gust MPH | rain 1hr in | rain 24hr in | rain mn in | humidity % | barometer mb |
| 20260504081554 | 49 | 202 | 12.0 | 15.0 | 0.00 | 0.00 | 0.00 | 69 | 991.0 |
| 20260504080113 | 49 | 200 | 11.0 | 16.0 | 0.00 | 0.00 | 0.00 | 70 | 991.5 |
| 20260504044542 | 49 | 213 | 5.0 | 9.0 | 0.00 | 0.00 | 0.00 | 66 | 996.2 |
| 20260504043043 | 50 | 229 | 7.0 | 10.0 | 0.00 | 0.00 | 0.00 | 61 | 996.5 |
| 20260504041540 | 48 | 223 | 5.0 | 7.0 | 0.00 | 0.00 | 0.00 | 64 | 996.8 |
| 20260504040100 | 50 | 211 | 7.0 | 10.0 | 0.00 | 0.00 | 0.00 | 60 | 997.2 |
| 20260504034545 | 50 | 194 | 5.0 | 8.0 | 0.00 | 0.00 | 0.00 | 63 | 997.4 |
| 20260504033045 | 50 | 186 | 7.0 | 10.0 | 0.00 | 0.00 | 0.00 | 61 | 997.7 |
| 20260504031543 | 50 | 213 | 6.0 | 9.0 | 0.00 | 0.00 | 0.00 | 59 | 998.1 |
| 20260504030044 | 52 | 191 | 6.0 | 10.0 | 0.00 | 0.00 | 0.00 | 58 | 998.4 |
| 20260504024550 | 53 | 194 | 7.0 | 10.0 | 0.00 | 0.00 | 0.00 | 55 | 998.6 |
| 20260504023053 | 49 | 200 | 3.0 | 6.0 | 0.00 | 0.00 | 0.00 | 65 | 998.8 |
| 20260504021545 | 52 | 205 | 3.0 | 6.0 | 0.00 | 0.00 | 0.00 | 57 | 999.0 |
| 20260504020045 | 54 | 173 | 2.0 | 3.0 | 0.00 | 0.00 | 0.00 | 52 | 999.3 |
| 20260504014556 | 55 | 0 | 2.0 | 5.0 | 0.00 | 0.00 | 0.00 | 50 | 999.5 |
| 20260504013042 | 58 | 262 | 4.0 | 10.0 | 0.00 | 0.00 | 0.00 | 43 | 999.5 |
| 20260504011540 | 61 | 261 | 10.0 | 13.0 | 0.00 | 0.00 | 0.00 | 36 | 999.7 |
| 20260504010050 | 59 | 246 | 10.0 | 12.0 | 0.00 | 0.00 | 0.00 | 38 | 999.8 |
| 20260504004544 | 58 | 266 | 8.0 | 11.0 | 0.00 | 0.00 | 0.00 | 43 | 999.8 |
| 20260504003054 | 60 | 270 | 8.0 | 12.0 | 0.00 | 0.00 | 0.00 | 38 | 999.9 |
| 20260504001600 | 61 | 273 | 10.0 | 12.0 | 0.00 | 0.00 | 0.00 | 38 | 1000.0 |
| 20260504000042 | 61 | 279 | 9.0 | 14.0 | 0.00 | 0.00 | 0.00 | 37 | 1000.1 |
| 20260503234540 | 62 | 294 | 15.0 | 21.0 | 0.00 | 0.00 | 0.00 | 34 | 1000.1 |
| 20260503233045 | 61 | 276 | 14.0 | 17.0 | 0.00 | 0.00 | 0.00 | 36 | 1000.3 |
| 20260503231545 | 62 | 294 | 19.0 | 24.0 | 0.00 | 0.00 | 0.00 | 34 | 1000.5 |
| 20260503230044 | 62 | 298 | 13.0 | 21.0 | 0.00 | 0.00 | 0.00 | 35 | 1000.7 |
| 20260503224545 | 60 | 317 | 12.0 | 16.0 | 0.00 | 0.00 | 0.00 | 35 | 1000.7 |
| 20260503223042 | 61 | 322 | 17.0 | 23.0 | 0.00 | 0.00 | 0.00 | 31 | 1000.7 |
| 20260503221546 | 59 | 298 | 18.0 | 23.0 | 0.00 | 0.00 | 0.00 | 34 | 1000.6 |
| 20260503220039 | 60 | 294 | 12.0 | 19.0 | 0.00 | 0.00 | 0.00 | 32 | 1000.7 |
| 20260503214545 | 61 | 305 | 12.0 | 23.0 | 0.00 | 0.00 | 0.00 | 28 | 1000.6 |
| 20260503213045 | 59 | 302 | 18.0 | 23.0 | 0.00 | 0.00 | 0.00 | 29 | 1000.7 |
| 20260503211543 | 59 | 303 | 12.0 | 22.0 | 0.00 | 0.00 | 0.00 | 29 | 1000.8 |
| 20260503210040 | 59 | 317 | 16.0 | 21.0 | 0.00 | 0.00 | 0.00 | 29 | 1001.0 |
| 20260503204543 | 58 | 309 | 17.0 | 22.0 | 0.00 | 0.00 | 0.00 | 33 | 1001.1 |
| 20260503203040 | 59 | 285 | 17.0 | 25.0 | 0.00 | 0.00 | 0.00 | 32 | 1001.1 |
| 20260503201538 | 60 | 302 | 20.0 | 27.0 | 0.00 | 0.00 | 0.00 | 31 | 1001.1 |
| 20260503200050 | 60 | 319 | 17.0 | 27.0 | 0.00 | 0.00 | 0.00 | 30 | 1001.3 |
| 20260503194543 | 59 | 296 | 19.0 | 27.0 | 0.00 | 0.00 | 0.00 | 31 | 1001.3 |
| 20260503193045 | 59 | 300 | 13.0 | 26.0 | 0.00 | 0.00 | 0.00 | 35 | 1001.5 |
| 20260503191539 | 59 | 317 | 21.0 | 26.0 | 0.00 | 0.00 | 0.00 | 31 | 1001.5 |
| 20260503190042 | 59 | 302 | 15.0 | 24.0 | 0.00 | 0.00 | 0.00 | 41 | 1001.6 |
| 20260503184537 | 57 | 316 | 13.0 | 23.0 | 0.00 | 0.00 | 0.00 | 43 | 1001.6 |
| 20260503183102 | 58 | 314 | 14.0 | 21.0 | 0.00 | 0.00 | 0.00 | 44 | 1001.7 |
| 20260503181608 | 57 | 323 | 16.0 | 26.0 | 0.00 | 0.00 | 0.00 | 48 | 1001.7 |
| 20260503180043 | 58 | 311 | 17.0 | 25.0 | 0.00 | 0.00 | 0.00 | 46 | 1002.1 |
| 20260503174542 | 58 | 315 | 19.0 | 29.0 | 0.00 | 0.00 | 0.00 | 52 | 1002.0 |
| 20260503173039 | 58 | 294 | 19.0 | 26.0 | 0.00 | 0.00 | 0.00 | 54 | 1002.0 |
| 20260503171537 | 57 | 303 | 19.0 | 25.0 | 0.00 | 0.00 | 0.00 | 55 | 1001.9 |